Location: Elstree
(51.6403°N, 0.2969°W)
Time: 04:34:18
(UTC+00:00)

BREEZE-M DEB (TANK) - Visible Passes

Search period start: 15 June 2021 00:00
Search period end: 25 June 2021 00:00
Orbit: 315 x 15388 km, 49.5° (Epoch: 14 June)

Date Brightness Start Highest point End Pass type
(mag) Time Alt. Az. Time Alt. Az. Time Alt. Az.
15 Jun 7.4 01:02:17 11° S 01:46:59 32° SE 01:59:32 10° E visible
16 Jun 7.5 00:30:43 11° S 01:12:14 28° SE 01:25:44 10° E visible
16 Jun 7.6 23:59:00 11° SSE 00:37:23 25° SE 00:51:37 10° E visible
17 Jun 7.7 23:27:06 10° SSE 00:02:33 21° SE 00:17:01 10° E visible
18 Jun 7.8 22:58:19 10° SSE 23:27:44 17° ESE 23:41:37 10° E visible
19 Jun 8.0 22:33:57 10° SE 22:53:03 13° ESE 23:04:30 10° E visible
21 Jun 6.2 02:35:33 10° SW 03:22:39 56° SSE 03:31:28 10° ENE visible
22 Jun 6.4 01:59:16 11° SSW 02:48:14 52° SSE 02:58:06 10° ENE visible
23 Jun 6.7 01:26:23 13° SSW 02:13:38 47° SSE 02:24:39 10° ENE visible
24 Jun 7.0 00:53:13 15° SSW 01:38:52 43° SE 01:51:06 10° ENE visible
